Location: Unspecified
(0.0000°N, 0.0000°E)
Time: 00:53:26
(UTC+00:00)

Envisat - Pass Details

Date: 01 July 2022
Orbit: 764 x 765 km, 98.2° (Epoch: 28 June)

Event Time Altitude Azimuth Distance (km) Brightness Sun altitude
Rises 04:17:19 0° 6° (N) 3,212 6.7 -24.3°
Reaches altitude 10° 04:19:38 10° 4° (N) 2,290 5.8 -23.8°
Maximum altitude 04:24:38 66° 282° (WNW) 831 2.9 -22.7°
Enters shadow 04:25:37 53° 229° (SW) 935 3.0 -22.5°
